• In Kazakhstan
  • List of Countries
  • For 7 days
  • Water Temperature
  • Satellite Maps
  • Weather Map
  • News
  • Weather Widgets
  • user-avatar
    Login

    Hourly Weather Berezki

    Today, 21 April, Sunday

    Time Temperature Precipitation Wind Pressure Humidity
    00:00 +7°C° 0 mm 0 mps 703 mmHg 68%
    01:00 +6°C° 0 mm 0 mps 703 mmHg 71%
    02:00 +5°C° 0 mm 0 mps 703 mmHg 76%
    03:00 +5°C° 0 mm 0 mps 703 mmHg 77%
    04:00 +5°C° 0 mm 0 mps 702 mmHg 79%
    05:00 +4°C° 0 mm 0 mps 702 mmHg 80%
    06:00 +6°C° 0.1 mm 0 mps 702 mmHg 77%
    07:00 +7°C° 0.1 mm 0 mps 702 mmHg 74%
    08:00 +8°C° 0.1 mm 0 mps 702 mmHg 71%
    09:00 +10°C° 0.2 mm 1 mps 702 mmHg 68%
    10:00 +11°C° 0.2 mm 1 mps 702 mmHg 65%
    11:00 +12°C° 0.2 mm 2 mps 702 mmHg 62%
    12:00 +12°C° 0.4 mm 2 mps 702 mmHg 62%
    13:00 +11°C° 0.4 mm 3 mps 702 mmHg 63%
    14:00 +11°C° 0.4 mm 3 mps 701 mmHg 64%
    15:00 +11°C° 0.8 mm 3 mps 701 mmHg 67%
    16:00 +11°C° 0.8 mm 3 mps 701 mmHg 69%
    17:00 +10°C° 0.8 mm 3 mps 701 mmHg 72%
    18:00 +9°C° 0.2 mm 3 mps 700 mmHg 79%
    19:00 +7°C° 0.2 mm 2 mps 700 mmHg 86%
    20:00 +6°C° 0.2 mm 1 mps 700 mmHg 92%
    21:00 +6°C° 0 mm 1 mps 700 mmHg 92%
    22:00 +5°C° 0 mm 1 mps 699 mmHg 92%
    23:00 +4°C° 0 mm 0 mps 699 mmHg 92%

    Tomorrow, 22 April, Monday

    Time Temperature Precipitation Wind Pressure Humidity
    00:00 +5°C° 0 mm 1 mps 699 mmHg 90%
    01:00 +5°C° 0 mm 1 mps 699 mmHg 89%
    02:00 +5°C° 0 mm 1 mps 699 mmHg 87%
    03:00 +5°C° 0 mm 1 mps 699 mmHg 86%
    04:00 +5°C° 0 mm 1 mps 699 mmHg 84%
    05:00 +5°C° 0 mm 1 mps 698 mmHg 83%
    06:00 +6°C° 0 mm 1 mps 699 mmHg 80%
    07:00 +7°C° 0 mm 1 mps 699 mmHg 76%
    08:00 +9°C° 0 mm 1 mps 699 mmHg 73%
    09:00 +10°C° 0.2 mm 1 mps 700 mmHg 68%
    10:00 +10°C° 0.2 mm 2 mps 700 mmHg 64%
    11:00 +11°C° 0.2 mm 3 mps 700 mmHg 59%
    12:00 +11°C° 0.9 mm 3 mps 700 mmHg 63%
    13:00 +11°C° 0.9 mm 3 mps 700 mmHg 66%
    14:00 +11°C° 0.9 mm 3 mps 700 mmHg 70%
    15:00 +11°C° 0.4 mm 3 mps 700 mmHg 70%
    16:00 +11°C° 0.4 mm 3 mps 700 mmHg 71%
    17:00 +11°C° 0.4 mm 4 mps 700 mmHg 71%
    18:00 +9°C° 0.1 mm 3 mps 700 mmHg 76%
    19:00 +8°C° 0.1 mm 3 mps 700 mmHg 80%
    20:00 +6°C° 0.1 mm 2 mps 700 mmHg 85%
    21:00 +6°C° 0.1 mm 2 mps 700 mmHg 87%
    22:00 +6°C° 0.1 mm 1 mps 700 mmHg 88%
    23:00 +6°C° 0.1 mm 1 mps 700 mmHg 90%

    Day after tomorrow, 23 April, Tuesday

    Time Temperature Precipitation Wind Pressure Humidity
    00:00 +6°C° 0.1 mm 1 mps 700 mmHg 91%
    01:00 +5°C° 0.1 mm 1 mps 700 mmHg 92%
    02:00 +5°C° 0.1 mm 1 mps 700 mmHg 93%
    03:00 +5°C° 0.2 mm 1 mps 700 mmHg 93%
    04:00 +5°C° 0.2 mm 1 mps 700 mmHg 93%
    05:00 +5°C° 0.2 mm 1 mps 700 mmHg 93%
    06:00 +6°C° 0 mm 1 mps 700 mmHg 90%
    07:00 +7°C° 0 mm 1 mps 700 mmHg 86%
    08:00 +8°C° 0 mm 1 mps 700 mmHg 83%
    09:00 +9°C° 0 mm 2 mps 701 mmHg 74%
    10:00 +10°C° 0 mm 3 mps 701 mmHg 65%
    11:00 +12°C° 0 mm 4 mps 701 mmHg 56%
    12:00 +12°C° 0.1 mm 4 mps 701 mmHg 57%
    13:00 +12°C° 0.1 mm 4 mps 701 mmHg 58%
    14:00 +12°C° 0.1 mm 4 mps 701 mmHg 58%
    15:00 +12°C° 0.1 mm 4 mps 701 mmHg 60%
    16:00 +12°C° 0.1 mm 3 mps 700 mmHg 61%
    17:00 +12°C° 0.1 mm 3 mps 700 mmHg 62%
    18:00 +10°C° 0 mm 3 mps 700 mmHg 66%
    19:00 +9°C° 0 mm 2 mps 700 mmHg 71%
    20:00 +8°C° 0 mm 2 mps 699 mmHg 76%
    21:00 +7°C° 0 mm 2 mps 699 mmHg 77%
    22:00 +6°C° 0 mm 2 mps 699 mmHg 79%
    23:00 +6°C° 0 mm 2 mps 700 mmHg 80%

    24 April, Wednesday

    Time Temperature Precipitation Wind Pressure Humidity
    00:00 +6°C° 0.1 mm 2 mps 700 mmHg 81%
    01:00 +5°C° 0.1 mm 2 mps 700 mmHg 82%
    02:00 +5°C° 0.1 mm 2 mps 700 mmHg 83%
    03:00 +5°C° 0.5 mm 2 mps 700 mmHg 86%
    04:00 +6°C° 0.5 mm 2 mps 700 mmHg 88%
    05:00 +6°C° 0.5 mm 2 mps 700 mmHg 91%
    06:00 +6°C° 0 mm 2 mps 700 mmHg 90%
    07:00 +7°C° 0 mm 2 mps 701 mmHg 89%
    08:00 +7°C° 0 mm 3 mps 701 mmHg 89%
    09:00 +9°C° 0 mm 3 mps 701 mmHg 83%
    10:00 +10°C° 0 mm 4 mps 702 mmHg 77%
    11:00 +12°C° 0 mm 4 mps 702 mmHg 71%
    12:00 +13°C° 0 mm 4 mps 702 mmHg 67%
    13:00 +14°C° 0 mm 4 mps 702 mmHg 63%
    14:00 +15°C° 0 mm 4 mps 702 mmHg 59%
    15:00 +15°C° 0 mm 4 mps 702 mmHg 60%
    16:00 +17°C° 0 mm 4 mps 702 mmHg 61%
    17:00 +17°C° 0 mm 4 mps 702 mmHg 62%
    18:00 +14°C° 0.1 mm 3 mps 702 mmHg 71%
    19:00 +13°C° 0.1 mm 2 mps 701 mmHg 80%
    20:00 +10°C° 0.1 mm 2 mps 701 mmHg 89%
    21:00 +10°C° 0.2 mm 2 mps 701 mmHg 89%
    22:00 +10°C° 0.2 mm 2 mps 701 mmHg 89%
    23:00 +10°C° 0.2 mm 2 mps 702 mmHg 89%

    25 April, Thursday

    Time Temperature Precipitation Wind Pressure Humidity
    00:00 +10°C° 0.1 mm 2 mps 702 mmHg 88%
    01:00 +10°C° 0.1 mm 3 mps 702 mmHg 87%
    02:00 +10°C° 0.1 mm 3 mps 702 mmHg 85%
    03:00 +10°C° 0 mm 3 mps 702 mmHg 86%
    04:00 +9°C° 0 mm 3 mps 702 mmHg 86%
    05:00 +9°C° 0 mm 2 mps 702 mmHg 87%
    06:00 +10°C° 0 mm 3 mps 702 mmHg 82%
    07:00 +11°C° 0 mm 4 mps 702 mmHg 77%
    08:00 +13°C° 0 mm 4 mps 702 mmHg 71%
    09:00 +14°C° 0 mm 5 mps 703 mmHg 67%
    10:00 +15°C° 0 mm 5 mps 703 mmHg 63%
    11:00 +17°C° 0 mm 6 mps 703 mmHg 59%
    12:00 +17°C° 0 mm 6 mps 703 mmHg 57%
    13:00 +19°C° 0 mm 6 mps 703 mmHg 55%
    14:00 +20°C° 0 mm 6 mps 702 mmHg 54%
    15:00 +20°C° 0 mm 6 mps 702 mmHg 56%
    16:00 +19°C° 0 mm 6 mps 702 mmHg 59%
    17:00 +19°C° 0 mm 6 mps 702 mmHg 62%
    18:00 +17°C° 0 mm 5 mps 701 mmHg 70%
    19:00 +15°C° 0 mm 4 mps 701 mmHg 77%
    20:00 +14°C° 0 mm 3 mps 701 mmHg 85%
    21:00 +13°C° 0 mm 3 mps 701 mmHg 86%
    22:00 +13°C° 0 mm 3 mps 701 mmHg 87%
    23:00 +13°C° 0 mm 3 mps 701 mmHg 88%

    26 April, Friday

    Time Temperature Precipitation Wind Pressure Humidity
    00:00 +13°C° 0 mm 3 mps 701 mmHg 89%
    01:00 +12°C° 0 mm 3 mps 701 mmHg 90%
    02:00 +12°C° 0 mm 3 mps 701 mmHg 91%
    03:00 +13°C° 0 mm 2 mps 701 mmHg 92%
    04:00 +12°C° 0 mm 2 mps 700 mmHg 93%
    05:00 +12°C° 0 mm 2 mps 700 mmHg 94%
    06:00 +12°C° 0 mm 3 mps 700 mmHg 87%
    07:00 +14°C° 0 mm 3 mps 700 mmHg 80%
    08:00 +16°C° 0 mm 3 mps 701 mmHg 74%
    09:00 +18°C° 0 mm 4 mps 701 mmHg 68%
    10:00 +19°C° 0 mm 4 mps 701 mmHg 62%
    11:00 +20°C° 0 mm 4 mps 701 mmHg 56%
    12:00 +21°C° 0 mm 4 mps 700 mmHg 54%
    13:00 +21°C° 0 mm 4 mps 700 mmHg 52%
    14:00 +22°C° 0 mm 4 mps 700 mmHg 50%
    15:00 +21°C° 0 mm 4 mps 700 mmHg 53%
    16:00 +21°C° 0 mm 4 mps 699 mmHg 56%
    17:00 +20°C° 0 mm 4 mps 699 mmHg 59%
    18:00 +19°C° 0 mm 3 mps 699 mmHg 69%
    19:00 +17°C° 0 mm 2 mps 698 mmHg 78%
    20:00 +15°C° 0 mm 2 mps 698 mmHg 87%
    21:00 +15°C° 0.8 mm 2 mps 698 mmHg 89%
    22:00 +14°C° 0.8 mm 2 mps 698 mmHg 90%
    23:00 +14°C° 0.8 mm 2 mps 698 mmHg 91%
    Show more